Location: Poughquag
(41.6090°N, 73.6820°W)
Time: 08:24:40
(UTC-05:00)

DIWATA 2B (PO-101) - Pass Details

Date: 15 November 2025
Orbit: 563 x 574 km, 98.1° (Epoch: 07 December)

Event Time Altitude Azimuth Distance (km) Brightness Sun altitude
Exits shadow 18:30:35 - 2° (N) 1,961 ? -21.7°
Reaches altitude 10° 18:30:49 10° 1° (N) 1,865 ? -21.8°
Maximum altitude 18:34:41 48° 288° (WNW) 747 ? -22.5°
Drops below altitude 10° 18:38:33 10° 213° (SSW) 1,852 ? -23.2°
Sets 18:40:43 0° 208° (SSW) 2,744 ? -23.6°
